Weather History for Dublin, Ireland

Change the Weather History Date:

Friday, February 8, 2013

  Actual Average Record
Temperature  
Mean Temperature 40 °F -  
Max Temperature 45 °F 47 °F 55 °F (2002)
Min Temperature 36 °F 37 °F 28 °F (2009)
Degree Days  
Heating Degree Days 24    
Moisture  
Dew Point 38 °F    
Average Humidity 89    
Maximum Humidity 100    
Minimum Humidity 82    
Precipitation  
Precipitation 0.00 in 0.07 in - ()
Sea Level Pressure  
Sea Level Pressure 30.23 in    
Wind  
Wind Speed 11 mph ()    
Max Wind Speed 16 mph    
Max Gust Speed -    
Visibility 6.5 miles    
Events Rain    
Averages and records for this station are not official NWS values.
T = Trace of Precipitation, MM = Missing Value Source: Averaged Metar Reports

Daily Weather History Graph

Daily Weather History Graph

Search for Another Location

Airport:

Trip Planner

Search our weather history database for the weather conditions in past years. The results will help you decide how hot, cold, wet, or windy it might be!

Date:

Astronomy

Feb. 08, 2013 Rise Set
Actual Time 7:57 AM GMT 5:22 PM GMT
Civil Twilight 7:20 AM GMT 5:59 PM GMT
Nautical Twilight 6:38 AM GMT 6:40 PM GMT
Astronomical Twilight 5:58 AM GMT 7:21 PM GMT
Moon 6:24 AM GMT (2/8) 3:32 PM GMT (2/8)
Length of Visible Light 10h 39m
Length of Day
9h 25m
Waning Crescent, 4% of the Moon is Illuminated
Feb 8
Waning Crescent
Feb 10
New
Feb 17
First Quarter
Feb 25
Full
Mar 4
Last Quarter

Hourly Weather History & Observations

Time (GMT) Temp. Windchill Dew Point Humidity Pressure Visibility Wind Dir Wind Speed Gust Speed Precip Events Conditions
12:00 AM 39 °F - 37 °F 89% 30.19 in 12 mi West 15.7 mph - - Rain Light Rain
12:00 AM 39.2 °F 30.5 °F 37.4 °F 93% 30.18 in 6.2 mi West 16.1 mph - N/A Rain Light Rain
12:30 AM 39.2 °F 31.6 °F 37.4 °F 93% 30.18 in 6.2 mi WNW 12.7 mph - N/A   Mostly Cloudy
1:00 AM 39.2 °F 32.5 °F 37.4 °F 93% 30.18 in 6.2 mi West 10.4 mph - N/A Rain Light Rain
1:30 AM 39.2 °F 32.5 °F 37.4 °F 93% 30.18 in 6.2 mi WNW 10.4 mph - N/A Rain Light Rain
2:00 AM 39.2 °F 31.6 °F 37.4 °F 93% 30.18 in 6.2 mi WNW 12.7 mph - N/A   Mostly Cloudy
2:30 AM 39.2 °F 32.0 °F 37.4 °F 93% 30.18 in 6.2 mi WNW 11.5 mph - N/A Rain Light Rain
3:00 AM 39.2 °F 32.0 °F 35.6 °F 87% 30.21 in 6.2 mi WNW 11.5 mph - N/A   Mostly Cloudy
3:30 AM 39.2 °F 31.2 °F 35.6 °F 87% 30.21 in 6.2 mi WNW 13.8 mph - N/A   Mostly Cloudy
4:00 AM 39.2 °F 31.6 °F 35.6 °F 87% 30.21 in 6.2 mi WNW 12.7 mph - N/A   Mostly Cloudy
4:30 AM 39.2 °F 31.6 °F 35.6 °F 87% 30.21 in 6.2 mi WNW 12.7 mph - N/A   Mostly Cloudy
5:00 AM 39.2 °F 32.0 °F 35.6 °F 87% 30.21 in 6.2 mi WNW 11.5 mph - N/A   Mostly Cloudy
5:30 AM 37.4 °F 29.8 °F 35.6 °F 93% 30.21 in 6.2 mi West 11.5 mph - N/A   Mostly Cloudy
6:00 AM 38 °F - 35 °F 82% 30.25 in 12 mi West 11.2 mph - -   Partly Cloudy
6:00 AM 37.4 °F 29.8 °F 35.6 °F 93% 30.21 in 6.2 mi West 11.5 mph - N/A   Mostly Cloudy
6:30 AM 37.4 °F 30.3 °F 33.8 °F 87% 30.24 in 6.2 mi West 10.4 mph - N/A   Mostly Cloudy
7:00 AM 37.4 °F 29.8 °F 35.6 °F 93% 30.24 in 6.2 mi West 11.5 mph - N/A   Mostly Cloudy
7:30 AM 39.2 °F 32.5 °F 35.6 °F 87% 30.24 in 6.2 mi WNW 10.4 mph - N/A   Mostly Cloudy
8:00 AM 39.2 °F 32.5 °F 35.6 °F 87% 30.27 in 6.2 mi West 10.4 mph - N/A Rain Light Rain
8:30 AM 39.2 °F 32.5 °F 35.6 °F 87% 30.27 in 6.2 mi West 10.4 mph - N/A   Light Drizzle
9:00 AM 39.2 °F 32.5 °F 35.6 °F 87% 30.27 in 6.2 mi West 10.4 mph - N/A   Mostly Cloudy
9:30 AM 39.2 °F 32.5 °F 35.6 °F 87% 30.27 in 6.2 mi West 10.4 mph - N/A   Light Drizzle
10:00 AM 39.2 °F 33.0 °F 37.4 °F 93% 30.27 in 6.2 mi West 9.2 mph - N/A   Mostly Cloudy
10:30 AM 41.0 °F 35.2 °F 37.4 °F 87% 30.27 in 6.2 mi WNW 9.2 mph - N/A   Mostly Cloudy
11:00 AM 41.0 °F 35.8 °F 37.4 °F 87% 30.27 in 6.2 mi West 8.1 mph - N/A   Mostly Cloudy
11:30 AM 41.0 °F 35.2 °F 37.4 °F 87% 30.27 in 6.2 mi West 9.2 mph - N/A   Mostly Cloudy
12:00 PM 41.0 °F 35.2 °F 39.2 °F 93% 30.27 in 6.2 mi WNW 9.2 mph - N/A Rain Light Rain
12:30 PM 42.8 °F 37.0 °F 39.2 °F 87% 30.27 in 6.2 mi WNW 10.4 mph - N/A   Mostly Cloudy
1:00 PM 42.8 °F 37.5 °F 39.2 °F 87% 30.27 in 6.2 mi West 9.2 mph - N/A   Mostly Cloudy
1:30 PM 42.8 °F 38.0 °F 39.2 °F 87% 30.27 in 6.2 mi WNW 8.1 mph - N/A   Mostly Cloudy
2:00 PM 44.6 °F 39.7 °F 41.0 °F 87% 30.24 in 6.2 mi WNW 9.2 mph - N/A Rain Light Rain
2:30 PM 44.6 °F 39.7 °F 41.0 °F 87% 30.24 in 6.2 mi West 9.2 mph - N/A   Mostly Cloudy
3:00 PM 44.6 °F 39.2 °F 41.0 °F 87% 30.24 in 6.2 mi West 10.4 mph - N/A   Mostly Cloudy
3:30 PM 44.6 °F 39.2 °F 41.0 °F 87% 30.24 in 6.2 mi West 10.4 mph - N/A   Mostly Cloudy
4:00 PM 44.6 °F 39.7 °F 42.8 °F 93% 30.24 in 6.2 mi West 9.2 mph - N/A Rain Light Rain
4:30 PM 44.6 °F 40.2 °F 41.0 °F 87% 30.24 in 6.2 mi West 8.1 mph - N/A   Mostly Cloudy
5:00 PM 44.6 °F 40.2 °F 42.8 °F 93% 30.24 in 6.2 mi West 8.1 mph - N/A   Mostly Cloudy
5:30 PM 44.6 °F 40.2 °F 41.0 °F 87% 30.21 in 6.2 mi West 8.1 mph - N/A   Mostly Cloudy
6:00 PM 44 °F - 41 °F 85% 30.25 in 12 mi West 8.9 mph - -   Partly Cloudy
6:00 PM 44.6 °F 39.7 °F 41.0 °F 87% 30.24 in 6.2 mi West 9.2 mph - N/A   Mostly Cloudy
6:30 PM 42.8 °F 38.0 °F 39.2 °F 87% 30.24 in 6.2 mi West 8.1 mph - N/A   Mostly Cloudy
7:00 PM 42.8 °F 37.5 °F 39.2 °F 87% 30.24 in 6.2 mi West 9.2 mph - N/A   Mostly Cloudy
7:30 PM 42.8 °F 36.2 °F 39.2 °F 87% 30.24 in 6.2 mi West 12.7 mph - N/A   Mostly Cloudy
8:00 PM 42.8 °F 37.5 °F 39.2 °F 87% 30.24 in 6.2 mi West 9.2 mph - N/A   Mostly Cloudy
8:30 PM 42.8 °F 37.5 °F 39.2 °F 87% 30.24 in 6.2 mi West 9.2 mph - N/A   Mostly Cloudy
9:00 PM 42.8 °F 37.0 °F 39.2 °F 87% 30.21 in 6.2 mi WSW 10.4 mph - N/A   Mostly Cloudy
9:30 PM 41.0 °F 33.9 °F 39.2 °F 93% 30.21 in 6.2 mi WSW 12.7 mph - N/A   Mostly Cloudy
10:00 PM 41.0 °F 34.7 °F 37.4 °F 87% 30.21 in 6.2 mi WSW 10.4 mph - N/A   Scattered Clouds
10:30 PM 39.2 °F 31.2 °F 37.4 °F 93% 30.21 in 6.2 mi WSW 13.8 mph - N/A   Scattered Clouds
11:00 PM 39.2 °F 32.0 °F 39.2 °F 100% 30.21 in 6.2 mi WSW 11.5 mph - N/A   Scattered Clouds
11:30 PM 41.0 °F 33.9 °F 39.2 °F 93% 30.21 in 6.2 mi WSW 12.7 mph - N/A   Mostly Cloudy